Regional Weather Roundup
Issued by NWS Wakefield, VA

Home | Current Version | Previous Version | Text Only | Print | Product List | Glossary On
Versions: 1 2 3 4 5 6 7 8 9 10 11 12 13 14 15 16 17 18 19 20 21 22 23 24 25 26 27 28 29 30 31 32 33 34 35 36 37 38 39 40 41 42 43 44 45 46 47 48 49 50
436
ASUS41 KAKQ 131515
RWRAKQ

REGIONAL WEATHER ROUNDUP
NATIONAL WEATHER SERVICE WAKEFIELD VA
1000 AM EST SAT FEB 13 2016

Note: "fair" indicates few or no clouds below 12,000 feet with no
significant weather and/or obstructions to visibility. * = Denotes
station may not report precipitation (e.g., rain,snow,etc.),
thunder or fog.

VAZ042-051-052>054-056-131600-
NORTHERN VIRGINIA

CITY           SKY/WX    TMP DP  RH WIND       PRES   REMARKS
WASH NATIONAL  PTSUNNY   22  -1  36 NW28G39   30.26R WCI   4
DULLES         PTSUNNY   19  -1  41 NW28G40   30.24R WCI   1
FORT BELVOIR   FAIR      22  -4  32 NW21G35   30.26R WCI   6
QUANTICO       FAIR      24   0  35 N25G38    30.29R WCI   8
FREDERICKSBRG* FAIR      24   3  40 NW16G24   30.26S WCI  11
STAFFORD*      FAIR      23   3  42 NW16G23   30.31R WCI  10
WARRENTON      PTSUNNY   25   8  47 NW13G23   30.25R WCI  14
CULPEPER*      CLOUDY    21   6  53 NW9G16    30.27R
MANASSAS*      NOT AVBL
LEESBURG*      CLOUDY    19   7  58 NW20G26   30.26R WCI   4
WINCHESTER     CLOUDY    18   0  45 NW18G30   30.25S WCI   2
FRONT ROYAL*   CLOUDY    18   0  45 NW14G23   30.23R WCI   4
LURAY*         CLOUDY    18   0  45 W12G21    30.23R WCI   5
$$

VAZ048-049-060>072-079>083-131600-
CENTRAL AND SOUTH CENTRAL VIRGINIA

CITY           SKY/WX    TMP DP  RH WIND       PRES   REMARKS
RICHMOND       FAIR      25  -3  29 W21G28    30.25R WCI  11
CHESTERFIELD*  FAIR     N/A N/A N/A NW18G25   30.27R
PETERSBURG*    FAIR      29 -14  15 W16G24    30.27S WCI  17
HANOVER        FAIR      25  -3  29 NW18G25   30.27R WCI  11
TAPPAHANNOCK*  FAIR      26  -1  30 W12G23    30.25R WCI  16
QUINTON*       FAIR      26  -1  30 N10G18    30.25R WCI  16
CHARLOTTSVILLE PTSUNNY   22  -4  32 W12G21    30.25R WCI  10
GORDONSVILLE*  FAIR      23  -3  32 NW10G22   30.25R WCI  12
ORANGE*        FAIR      25   0  33 W9        30.28R
LOUISA*        FAIR      25  -2  30 W22       30.23S WCI  10
BUMPASS*       FAIR      24  -3  31 NW6G20    30.25R
FARMVILLE*     FAIR      27  -5  24 NW5       30.26R
CREWE*         FAIR      25  -1  31 W7        30.25R
FORT PICKETT*  PTSUNNY   27  -3  27 NW13G18   30.25R WCI  17
CHASE CITY*    FAIR      25  -5  26 W15G22    30.27S WCI  13
CLARKSVILLE*   FAIR      27  -4  26 NW13G24   30.29R WCI  16
SOUTH HILL*    FAIR      26  -3  28 NW8G16    30.33R
LAWRENCEVILLE* FAIR      27  -2  27 W12       30.25R WCI  17
EMPORIA*       FAIR      28   1  31 W10G18    30.28R WCI  19
$$

VAZ088>098-131600-
SOUTHEAST VIRGINIA

CITY           SKY/WX    TMP DP  RH WIND       PRES   REMARKS
NORFOLK        FAIR      28   2  32 N16G28    30.22R WCI  16
VIRGINIA BEACH FAIR      31   9  39 NW23G31   30.21R WCI  18
NORFOLK NAVAL  FAIR      29   7  39 NW23      30.24R WCI  15
WEST POINT*    FAIR      27  -6  24 NW13G24   30.26S WCI  16
SALUDA*        FAIR      26   3  38 NW20G30   30.23R WCI  12
NEWPORT NEWS   FAIR      28   4  35 NW15G24   30.24R WCI  16
LANGLEY AFB    FAIR      27   3  36 NW15G29   30.22R WCI  15
FORT EUSTIS    FAIR      28   4  36 NW12G21   30.23R WCI  18
WILLIAMSBURG*  FAIR      30   3  31 NW16G25   30.25R WCI  19
HR EXEC AP*    FAIR      28   7  40 NW14G21   30.25R WCI  17
FRANKLIN*      FAIR      28   0  30 NW16G24   30.27R WCI  17
US460-WAKEFLD  FAIR      28   0  29 W12G22    30.25R WCI  18
$$

VAZ020-022-025-037-045-131600-
WEST CENTRAL AND SOUTHWEST VIRGINIA

CITY           SKY/WX    TMP DP  RH WIND       PRES   REMARKS
STAUNTON*      FAIR      22  -3  32 NW13G28   30.24R WCI  10
WAYNESBORO*    FAIR      17  -9  30 NW18G28   30.19R WCI   1
HOT SPRINGS VA CLOUDY     5  -4  66 NW22G30   29.97R WCI -16
LYNCHBURG      FAIR      20  -5  33 VRB7      30.27R
DANVILLE       FAIR      27  -1  30 NW13G22   30.30R WCI  16
SOUTH BOSTON*  FAIR      27  -3  27 N17       30.30R WCI  14
MARTINSVILLE   FAIR      22  -2  35 NW15G30   30.31R WCI   8
ROANOKE        PTSUNNY   20  -1  40 W21G28    30.29R WCI   4
BLACKSBURG     PTSUNNY   15   1  53 W17G38    30.24R WCI  -1
DUBLIN*        CLOUDY    17   2  54 NW21G31   30.24R WCI  -1
MARION*        CLOUDY    15   2  58 W26G33    30.22S HAZE    WCI  -5
HILLSVILLE*    PTSUNNY   12   2  63 NW21G28   30.14R WCI  -6
RICHLANDS*     SNOW      10   5  77 NW15G23   30.25R VSB 1/2 WCI  -6
WISE*          MIX PCPN  14   5  67 NW13      30.29R WCI   0
ABINGDON*      CLOUDY    18   3  52 NW13G25   30.31R WCI   5
$$

MDZ021>025-VAZ099-100-131600-
SOUTHERN MARYLAND AND THE DELMARVA PENINSULA

CITY           SKY/WX    TMP DP  RH WIND       PRES   REMARKS
PATUXENT RIVER PTSUNNY   23   9  55 N20G32    30.22R WCI   8
BAY BRIDGE APT   N/A     23   5  46 NW26G36   30.22R WCI   6
LEONARDTOWN    PTSUNNY   25   5  42 NW9G20    30.23R
DOVER          MOSUNNY   23   0  37 W24G33    30.14R WCI   7
GEORGETOWN     MOSUNNY   24   0  35 NW10G24   30.16R WCI  14
EASTON         MOSUNNY   25   3  39 NW23G30   30.22R WCI  10
CAMBRIDGE      MOSUNNY   23   5  46 NW16G24   30.20R WCI  10
SALISBURY      PTSUNNY   26   3  37 NW25G37   30.17R WCI  11
OCEAN CITY     SUNNY     25   3  38 NW24G36   30.15R WCI   9
WALLOPS ISLAND PTSUNNY   26   6  42 NW20G32   30.17R WCI  12
ACCOMACK*      PTSUNNY   27   5  39 NW22G31   30.20R WCI  12
$$

NCZ012>017-030>032-131600-
NORTH CENTRAL AND EASTERN NORTH CAROLINA

CITY           SKY/WX    TMP DP  RH WIND       PRES   REMARKS
ROANOKE RAPIDS FAIR      30   1  29 NW13G20   30.27R WCI  20
RALEIGH        MOSUNNY   29   2  31 VRB6      30.29R
ELIZABETH CITY SUNNY     29  12  49 NW23      30.23R WCI  15
AHOSKIE*       NOT AVBL
EDENTON*       SUNNY     32  14  46 NW16G22   30.25R WCI  21
CURRITUCK*     NOT AVBL
KILL DEVIL HLS NOT AVBL
MANTEO         NOT AVBL
CAPE HATTERAS  SUNNY     36  20  52 VRB7G18   30.20R
TARBORO*       FAIR      32   6  34 W16       30.29S WCI  21
GOLDSBORO      SUNNY     32  10  40 NW16G26   30.26R WCI  21
WASHINGTON     SUNNY     31   6  34 NW14G20   30.25R WCI  21
GREENVILLE     SUNNY     32   7  34 NW15G23   30.27R WCI  22
NEW BERN       SUNNY     33  21  61 NW17G24   30.26R WCI  22
WILMINGTON     SUNNY     39  22  50 N13G23    30.26R
$$

VAZ048-131600-
ELSEWHERE

CITY           SKY/WX    TMP DP  RH WIND       PRES   REMARKS
HARRISBURG PA  MOSUNNY   16   1  51 NW23G31   30.17R WCI  -2
BALTIMORE      MOSUNNY   20  -1  40 W21G32    30.22R WCI   4
ANNAPOLIS      LGT SNOW  20   9  62 NW20G35   30.22R WCI   4
ANDREWS AFB    FAIR      21   3  45 NW20G33   30.22R WCI   6
PHILADELPHIA   PTSUNNY   23  -6  28 NW20G25   30.13R WCI   8
HENDERSON NC   MOSUNNY   27  -3  27 NW10G20   30.29R WCI  17
GREENSBORO     MOSUNNY   27  -1  30 NW21G30   30.27R WCI  13
ROCKY MOUNT    SUNNY     30   2  30 NW18      30.29R WCI  18
$$

VAZ100-131600-
MARINE

STATION/POSITION TIME  TEMP    WIND        PRES    WAVE   SWELL
                       AIR SEA DIR/SP/G            HT/PER HT/PER
                 (UTC) (F)     (DEG/KT/KT) (MB)    (FT/S) (FT/S)
BRANDYWINE LGT   1400   23     340/ 22/ 30 1019.7R
CAPE MAY NJ      1400   25 36  310/ 28/ 38 1019.3R
LEWES DE         1400   25 37  310/ 27/ 33 1020.2R
15NM E FENWICK I 1450   26 43              1019.3R   7/ 6
OCEAN-CITY-INLET 1400   25 35  330/ 18/ 24 1019.7R
WACHAPREAGUE VA  1400   26 34  340/ 11/ 18 1022.0R
THOMAS POINT MD  1500   20 36  320/ 27/ 31 1023.2R
GOOSES REEF MD   1500   21 37  310/ 19/ 27 1024.4R   2/ 3
COVE POINT MD    1400   20     350/ 23/ 29 1023.5R
SOLOMONS ISLAND  1400   23 38  290/ 11/ 20   N/A
BISHOPS HEAD MD  1418   22 30  290/ 23/ 30 1022.0R
PINEY POINT MD   1400          330/ 27/ 32   N/A
POTOMAC MD       1500   25 38  310/ 21/ 27 1022.1R   3/ 3
CAMBRIDGE MD     1400   24 36  320/ 22/ 26 1021.1R
LEWISETTA VA     1400   24 35  330/ 23/ 35 1023.0R
RAPPAHANNOCK LGT 1400          310/ 27/ 32 1022.6R
STINGRAY PT      1500   26 39  320/ 19/ 27 1023.1R   2/ 3
YORK RVR RNG VA  1400   26     330/ 25/ 30 1022.5R
YORKTOWN VA      1400   26 39  330/ 19/ 27 1023.1R
JAMESTOWN VA     1500   26 40  320/ 14/ 19   N/A     1
DOMINION TERM VA 1400   27     340/  9/ 20 1022.9R
KIPTOPEKE VA     1400      38  330/ 26/ 32   N/A
CHES BAY BRIDGE  1400   27 40  310/ 30/ 34 1022.5R
CAPE HENRY VA    1400   27     320/ 29/ 34   N/A
CHESAPEAKE LGHT  1400   27     340/ 30/ 32 1022.1R
WILLOUBY STN VA  1400   26     340/ 23/ 26 1023.9R
CAPE HENRY BUOY  1428      43                N/A     7/ 5
1ST LANDING BUOY 1500      40                N/A     4/ 3
CAPE CHARLES BUO 1426      42                N/A     6/ 5   2/11
OFFSHORE WE BUOY 1421      45                N/A     8/ 6   2/11
64NM E OF VA BCH 1450   31 48  330/ 27/ 33 1020.2R   9/ 7
DUCK PIER NC     1400   29     340/ 27/ 31 1021.0R
44100 DUCK FRF   1424      46                N/A     6/ 6   2/11
44056 DUCK FRF   1411      42                N/A     4/ 5
OREGON INLET NC  1400   30 39  320/ 18/ 25 1022.0R
HATTERAS NC      1400   33 43  330/ 17/ 18 1021.5R
DIAMOND SHLS NC  1450   38 71  340/ 19/ 25 1021.9R   6/ 8   2/11
$$
 C1F1C2F2C3F3C4F4C5F5C6F6C7F7C8M1C9!



USA.gov is the U.S. government's official web portal to all federal, state and local government web resources and services.